Find Shi Jian 6/4A

NORAD ID: 37180 Int'l Des: 2010-051 Owner: CASC Country: CN operational
LEOCIRCULARRETROGRADESSO

Aktuelle Ansicht

3D-Globus wird geladen...

Über Shi Jian 6/4A

Beschreibung wird geladen...

Nächste Überflüge

Passes for default location (London). Set your location on the main map for personalized predictions.

Höhenverlauf

Loading altitude history...

Zweizeiliger Elementsatz

1 37180U 10051B 26149.60288821 .00001141 00000-0 98486-4 0 9999
2 37180 97.8683 154.8250 0010397 11.7699 348.3765 14.99271848852891
Epoch: 29. Mai 2026 • Age: 14 hours

Aktueller Status

Höhe 578.6 km
Geschwindigkeit 7.57 km/s
Subsatellitenpunkt 5.29°N, 27.55°E
Startdatum 6. Okt. 2010
Alter 15.6 years
Typ other

Technische Details

Klassifizierung Payload
Masse 350.00 kg
Trockenmasse 350.00 kg
Gesamtmasse 350.00 kg
Länge 1.00 m
Durchmesser 1.00 m
Spannweite 4.00 m
Form Box + 2 Pan
Hersteller DFHZ
Bus-Typ CAST-968
Phasenstatus In Orbit
Besitzer/Staat CASC/CN

Most Searched